Tampa Macdill AFB, FL

12:39 AM EST on December 13, 2017 (GMT -0500)
MacDill Air Force Base

Weather History for KMCF - May, 2013

Change the Weather History Date:

Wednesday, May 22, 2013

  Actual Average Record
Temperature  
Mean Temperature 78 °F -  
Max Temperature 87 °F 86 °F 93 °F (2015)
Min Temperature 70 °F 69 °F 63 °F (2012)
Cooling Degree Days 14    
Growing Degree Days 28 (Base 50)    
Moisture  
Dew Point 73 °F    
Average Humidity 85    
Maximum Humidity 100    
Minimum Humidity 59    
Precipitation  
Precipitation 0.00 in - - ()
Sea Level Pressure  
Sea Level Pressure 29.96 in    
Wind  
Wind Speed 4 mph (East)    
Max Wind Speed 16 mph    
Max Gust Speed 18 mph    
Visibility 10 miles    
Events Rain    
Averages and records for this station are not official NWS values.
T = Trace of Precipitation, MM = Missing Value Source: NWS Daily Summary

Daily Weather History Graph

Daily Weather History Graph

Search for Another Location

Airport or City:

Trip Planner

Search our weather history database for the weather conditions in past years. The results will help you decide how hot, cold, wet, or windy it might be!

Date:

Astronomy

May. 22, 2013 Rise Set
Actual Time 6:37 AM EDT 8:16 PM EDT
Civil Twilight 6:11 AM EDT 8:42 PM EDT
Nautical Twilight 5:40 AM EDT 9:13 PM EDT
Astronomical Twilight 5:07 AM EDT 9:46 PM EDT
Moon 5:48 PM EDT (5/22) 4:26 AM EDT (5/22)
Length of Visible Light 14h 31m
Length of Day
13h 39m
Waxing Gibbous, 91% of the Moon is Illuminated
May 22
Waxing Gibbous
May 25
Full
May 31
Last Quarter
Jun 8
New
Jun 16
First Quarter

Hourly Weather History & Observations

Time (EDT) Temp. Heat Index Dew Point Humidity Pressure Visibility Wind Dir Wind Speed Gust Speed Precip Events Conditions
12:58 AM 71.2 °F - 71.2 °F 100% 29.97 in 10.0 mi ESE 4.6 mph - N/A   Clear
1:58 AM 71.4 °F - 71.4 °F 100% 29.96 in 10.0 mi ESE 4.6 mph - N/A   Mostly Cloudy
2:58 AM 70.7 °F - 70.7 °F 100% 29.95 in 10.0 mi NE 1.2 mph - N/A   Clear
3:58 AM 70.3 °F - 70.3 °F 100% 29.94 in 10.0 mi ESE 4.6 mph - N/A   Mostly Cloudy
4:23 AM 71.6 °F - 71.6 °F 100% 29.93 in 10.0 mi ESE 3.5 mph - N/A   Mostly Cloudy
4:58 AM 70.9 °F - 70.9 °F 100% 29.94 in 10.0 mi East 4.6 mph - N/A   Overcast
5:58 AM 71.6 °F - 71.6 °F 100% 29.94 in 10.0 mi SSE 6.9 mph - N/A   Mostly Cloudy
6:58 AM 71.8 °F - 71.8 °F 100% 29.96 in 10.0 mi Variable 6.9 mph - N/A   Overcast
7:58 AM 73.2 °F - 72.9 °F 99% 29.96 in 10.0 mi SE 3.5 mph - N/A   Overcast
8:58 AM 76.8 °F - 73.6 °F 90% 29.98 in 10.0 mi Calm Calm - N/A   Mostly Cloudy
9:03 AM 77.0 °F - 73.4 °F 89% 29.97 in 10.0 mi Calm Calm - N/A   Overcast
9:08 AM 77.0 °F - 75.2 °F 94% 29.98 in 10.0 mi Calm Calm - N/A   Overcast
9:58 AM 79.0 °F - 73.8 °F 84% 29.99 in 10.0 mi Variable 1.2 mph - N/A   Overcast
10:13 AM 80.6 °F 85.4 °F 73.4 °F 79% 29.98 in 10.0 mi Calm Calm - N/A   Scattered Clouds
10:58 AM 83.8 °F 91.4 °F 74.8 °F 74% 30.00 in 10.0 mi Variable 1.2 mph - N/A   Scattered Clouds
11:58 AM 86.2 °F 93.8 °F 73.4 °F 66% 29.99 in 10.0 mi Variable 2.3 mph - N/A   Clear
12:58 PM 86.4 °F 93.8 °F 73.2 °F 65% 29.99 in 10.0 mi West 6.9 mph - N/A   Clear
1:58 PM 86.0 °F 93.4 °F 73.6 °F 66% 29.97 in 10.0 mi WNW 4.6 mph - N/A   Scattered Clouds
2:58 PM 87.4 °F 95.3 °F 73.6 °F 63% 29.95 in 10.0 mi WNW 8.1 mph - N/A   Clear
3:58 PM 87.1 °F 92.8 °F 71.2 °F 59% 29.93 in 10.0 mi Variable 6.9 mph - N/A   Clear
4:58 PM 85.1 °F 91.5 °F 72.5 °F 66% 29.92 in 10.0 mi NW 9.2 mph - N/A   Clear
5:58 PM 84.0 °F 89.3 °F 71.8 °F 66% 29.92 in 10.0 mi West 8.1 mph - N/A   Clear
6:58 PM 82.9 °F 88.5 °F 72.9 °F 71% 29.93 in 10.0 mi NW 6.9 mph - N/A   Clear
7:09 PM 82.4 °F 88.2 °F 73.4 °F 74% 29.92 in 10.0 mi East 16.1 mph 18.4 mph N/A   Partly Cloudy
7:58 PM 78.6 °F - 72.5 °F 81% 29.94 in 10.0 mi East 10.4 mph - N/A   Clear
8:24 PM 77.0 °F - 71.6 °F 83% 29.94 in 10.0 mi ESE 5.8 mph - N/A Rain Light Rain
8:40 PM 77.0 °F - 73.4 °F 89% 29.94 in 10.0 mi SE 3.5 mph - N/A   Partly Cloudy
8:42 PM 77.0 °F - 73.4 °F 89% 29.94 in 10.0 mi ESE 2.3 mph - N/A Rain Light Rain
8:58 PM 76.6 °F - 72.7 °F 87% 29.95 in 10.0 mi ESE 5.8 mph - 0.00 in Rain Light Rain
8:59 PM 77.0 °F - 73.4 °F 89% 29.94 in 10.0 mi ESE 5.8 mph - N/A   Clear
9:58 PM 74.8 °F - 71.1 °F 88% 29.96 in 10.0 mi ENE 4.6 mph - 0.00 in   Clear
10:58 PM 73.9 °F - 71.8 °F 93% 29.97 in 10.0 mi Variable 4.6 mph - N/A   Clear
11:58 PM 73.8 °F - 71.1 °F 91% 29.97 in 10.0 mi NNE 1.2 mph - N/A   Clear